• In Österreich
  • Länderverzeichnis
  • Für 7 Tage
  • Wassertemperatur
  • Satellitenkarten
  • Wetterkarte
  • News
  • Widgets
  • user-avatar
    Anmelden

    Stündliche Wetter Boma

    Heute, 19 Dezember, Dienstag

    Zeit Temperatur Niederschläge Wind Luftdruck Luftfeuchtigkeit
    00:00 +22°C° 0 mm 0 m/S 699 mmHg 37%
    01:00 +21°C° 0 mm 0 m/S 699 mmHg 40%
    02:00 +21°C° 0 mm 0 m/S 699 mmHg 46%
    03:00 +20°C° 0 mm 0 m/S 699 mmHg 51%
    04:00 +20°C° 0 mm 0 m/S 699 mmHg 57%
    05:00 +20°C° 0 mm 0 m/S 699 mmHg 62%
    06:00 +22°C° 0 mm 1 m/S 699 mmHg 67%
    07:00 +22°C° 0 mm 1 m/S 699 mmHg 71%
    08:00 +26°C° 0 mm 1 m/S 700 mmHg 59%
    09:00 +29°C° 0 mm 1 m/S 700 mmHg 47%
    10:00 +32°C° 0 mm 1 m/S 701 mmHg 34%
    11:00 +34°C° 0 mm 1 m/S 701 mmHg 28%
    12:00 +36°C° 0 mm 1 m/S 700 mmHg 22%
    13:00 +39°C° 0 mm 1 m/S 700 mmHg 15%
    14:00 +39°C° 0 mm 1 m/S 699 mmHg 15%
    15:00 +37°C° 0 mm 1 m/S 698 mmHg 15%
    16:00 +37°C° 0 mm 1 m/S 697 mmHg 14%
    17:00 +34°C° 0 mm 1 m/S 697 mmHg 18%
    18:00 +31°C° 0 mm 1 m/S 697 mmHg 22%
    19:00 +26°C° 0 mm 0 m/S 697 mmHg 26%
    20:00 +27°C° 0 mm 1 m/S 698 mmHg 28%
    21:00 +27°C° 0 mm 1 m/S 698 mmHg 30%
    22:00 +26°C° 0 mm 1 m/S 699 mmHg 33%
    23:00 +25°C° 0 mm 1 m/S 699 mmHg 35%

    Morgen, 20 Dezember, Mittwoch

    Zeit Temperatur Niederschläge Wind Luftdruck Luftfeuchtigkeit
    00:00 +25°C° 0 mm 1 m/S 699 mmHg 37%
    01:00 +24°C° 0 mm 1 m/S 699 mmHg 39%
    02:00 +23°C° 0 mm 1 m/S 699 mmHg 47%
    03:00 +23°C° 0 mm 1 m/S 699 mmHg 55%
    04:00 +22°C° 0 mm 1 m/S 698 mmHg 64%
    05:00 +22°C° 0 mm 1 m/S 699 mmHg 70%
    06:00 +22°C° 0 mm 1 m/S 699 mmHg 76%
    07:00 +22°C° 0 mm 1 m/S 699 mmHg 83%
    08:00 +26°C° 0 mm 1 m/S 700 mmHg 68%
    09:00 +29°C° 0 mm 1 m/S 700 mmHg 53%
    10:00 +32°C° 0 mm 1 m/S 701 mmHg 38%
    11:00 +34°C° 0 mm 1 m/S 700 mmHg 30%
    12:00 +36°C° 0 mm 1 m/S 700 mmHg 23%
    13:00 +39°C° 0 mm 2 m/S 699 mmHg 15%
    14:00 +39°C° 0 mm 1 m/S 698 mmHg 15%
    15:00 +39°C° 0 mm 1 m/S 698 mmHg 14%
    16:00 +37°C° 0 mm 1 m/S 697 mmHg 14%
    17:00 +34°C° 0 mm 1 m/S 697 mmHg 18%
    18:00 +29°C° 0 mm 0 m/S 697 mmHg 22%
    19:00 +26°C° 0 mm 0 m/S 697 mmHg 26%
    20:00 +25°C° 0 mm 0 m/S 698 mmHg 27%
    21:00 +27°C° 0 mm 1 m/S 699 mmHg 28%
    22:00 +26°C° 0 mm 1 m/S 699 mmHg 30%
    23:00 +25°C° 0 mm 1 m/S 699 mmHg 32%

    übermorgen, 21 Dezember, Donnerstag

    Zeit Temperatur Niederschläge Wind Luftdruck Luftfeuchtigkeit
    00:00 +24°C° 0 mm 1 m/S 699 mmHg 34%
    01:00 +22°C° 0 mm 0 m/S 699 mmHg 36%
    02:00 +23°C° 0 mm 1 m/S 699 mmHg 45%
    03:00 +22°C° 0 mm 1 m/S 699 mmHg 53%
    04:00 +22°C° 0 mm 1 m/S 698 mmHg 61%
    05:00 +22°C° 0 mm 1 m/S 699 mmHg 67%
    06:00 +22°C° 0 mm 1 m/S 700 mmHg 73%
    07:00 +23°C° 0 mm 1 m/S 700 mmHg 78%
    08:00 +26°C° 0 mm 1 m/S 701 mmHg 67%
    09:00 +29°C° 0 mm 1 m/S 701 mmHg 55%
    10:00 +32°C° 0 mm 1 m/S 702 mmHg 44%
    11:00 +34°C° 0 mm 1 m/S 701 mmHg 35%
    12:00 +36°C° 0 mm 1 m/S 700 mmHg 27%
    13:00 +39°C° 0 mm 1 m/S 700 mmHg 19%
    14:00 +39°C° 0 mm 1 m/S 699 mmHg 18%
    15:00 +39°C° 0 mm 1 m/S 698 mmHg 17%
    16:00 +37°C° 0 mm 1 m/S 697 mmHg 16%
    17:00 +34°C° 0 mm 1 m/S 697 mmHg 20%
    18:00 +31°C° 0 mm 1 m/S 697 mmHg 25%
    19:00 +29°C° 0 mm 1 m/S 698 mmHg 29%
    20:00 +28°C° 0 mm 1 m/S 698 mmHg 33%
    21:00 +27°C° 0 mm 1 m/S 699 mmHg 37%
    22:00 +26°C° 0 mm 1 m/S 699 mmHg 41%
    23:00 +25°C° 0 mm 1 m/S 699 mmHg 45%

    22 Dezember, Freitag

    Zeit Temperatur Niederschläge Wind Luftdruck Luftfeuchtigkeit
    00:00 +24°C° 0 mm 1 m/S 699 mmHg 49%
    01:00 +24°C° 0 mm 1 m/S 699 mmHg 53%
    02:00 +23°C° 0 mm 1 m/S 699 mmHg 62%
    03:00 +23°C° 0 mm 1 m/S 699 mmHg 71%
    04:00 +22°C° 0 mm 1 m/S 699 mmHg 81%
    05:00 +22°C° 0 mm 1 m/S 699 mmHg 83%
    06:00 +23°C° 0 mm 1 m/S 700 mmHg 86%
    07:00 +23°C° 0 mm 1 m/S 700 mmHg 88%
    08:00 +25°C° 0 mm 1 m/S 701 mmHg 77%
    09:00 +28°C° 0 mm 1 m/S 701 mmHg 66%
    10:00 +30°C° 0 mm 1 m/S 702 mmHg 55%
    11:00 +33°C° 0 mm 1 m/S 701 mmHg 44%
    12:00 +34°C° 0 mm 0 m/S 701 mmHg 34%
    13:00 +37°C° 0 mm 0 m/S 700 mmHg 24%
    14:00 +36°C° 0 mm 0 m/S 699 mmHg 23%
    15:00 +37°C° 0 mm 1 m/S 698 mmHg 23%
    16:00 +36°C° 0 mm 1 m/S 697 mmHg 23%
    17:00 +34°C° 0 mm 1 m/S 698 mmHg 29%
    18:00 +31°C° 0 mm 1 m/S 698 mmHg 36%
    19:00 +29°C° 0 mm 1 m/S 698 mmHg 42%
    20:00 +28°C° 0 mm 1 m/S 698 mmHg 48%
    21:00 +27°C° 0 mm 1 m/S 699 mmHg 54%
    22:00 +26°C° 0 mm 1 m/S 699 mmHg 59%
    23:00 +26°C° 0 mm 1 m/S 699 mmHg 64%

    23 Dezember, Samstag

    Zeit Temperatur Niederschläge Wind Luftdruck Luftfeuchtigkeit
    00:00 +25°C° 0 mm 1 m/S 699 mmHg 68%
    01:00 +24°C° 0 mm 1 m/S 699 mmHg 73%
    02:00 +24°C° 0 mm 1 m/S 699 mmHg 78%
    03:00 +24°C° 0 mm 1 m/S 699 mmHg 82%
    04:00 +23°C° 0 mm 1 m/S 698 mmHg 87%
    05:00 +23°C° 0 mm 1 m/S 699 mmHg 88%
    06:00 +23°C° 0 mm 1 m/S 699 mmHg 88%
    07:00 +23°C° 0 mm 1 m/S 700 mmHg 89%
    08:00 +26°C° 0 mm 1 m/S 700 mmHg 76%
    09:00 +29°C° 0 mm 1 m/S 701 mmHg 63%
    10:00 +32°C° 0 mm 1 m/S 701 mmHg 51%
    11:00 +34°C° 0 mm 1 m/S 701 mmHg 42%
    12:00 +37°C° 0 mm 1 m/S 700 mmHg 32%
    13:00 +37°C° 0 mm 0 m/S 699 mmHg 23%
    14:00 +39°C° 0 mm 1 m/S 699 mmHg 23%
    15:00 +37°C° 0 mm 1 m/S 698 mmHg 23%
    16:00 +36°C° 0 mm 1 m/S 697 mmHg 23%
    17:00 +34°C° 0 mm 1 m/S 697 mmHg 29%
    18:00 +31°C° 0 mm 1 m/S 697 mmHg 34%
    19:00 +29°C° 0 mm 1 m/S 697 mmHg 40%
    20:00 +28°C° 0 mm 1 m/S 698 mmHg 44%
    21:00 +27°C° 0 mm 1 m/S 698 mmHg 49%
    22:00 +24°C° 0 mm 0 m/S 699 mmHg 53%
    23:00 +25°C° 0 mm 1 m/S 699 mmHg 57%

    24 Dezember, Sonntag

    Zeit Temperatur Niederschläge Wind Luftdruck Luftfeuchtigkeit
    00:00 +25°C° 0 mm 1 m/S 699 mmHg 61%
    01:00 +24°C° 0 mm 1 m/S 699 mmHg 65%
    02:00 +24°C° 0 mm 1 m/S 698 mmHg 71%
    03:00 +23°C° 0 mm 1 m/S 698 mmHg 78%
    04:00 +23°C° 0 mm 1 m/S 698 mmHg 85%
    05:00 +23°C° 0 mm 1 m/S 699 mmHg 85%
    06:00 +23°C° 0 mm 1 m/S 699 mmHg 85%
    07:00 +23°C° 0 mm 1 m/S 700 mmHg 86%
    08:00 +26°C° 0 mm 1 m/S 700 mmHg 72%
    09:00 +29°C° 0 mm 1 m/S 700 mmHg 58%
    10:00 +31°C° 0 mm 1 m/S 701 mmHg 44%
    11:00 +33°C° 0 mm 1 m/S 700 mmHg 35%
    12:00 +35°C° 0 mm 1 m/S 699 mmHg 26%
    13:00 +37°C° 0 mm 1 m/S 699 mmHg 17%
    14:00 +37°C° 0 mm 1 m/S 698 mmHg 17%
    15:00 +37°C° 0 mm 1 m/S 698 mmHg 16%
    16:00 +37°C° 0 mm 1 m/S 697 mmHg 16%
    17:00 +34°C° 0 mm 1 m/S 697 mmHg 21%
    18:00 +31°C° 0 mm 1 m/S 697 mmHg 25%
    19:00 +26°C° 0 mm 0 m/S 697 mmHg 30%
    20:00 +26°C° 0 mm 0 m/S 698 mmHg 32%
    21:00 +27°C° 0 mm 1 m/S 698 mmHg 35%
    22:00 +26°C° 0 mm 1 m/S 699 mmHg 37%
    23:00 +25°C° 0 mm 1 m/S 699 mmHg 39%
    Mehr zeigen